User: anonymous   Login
Location: Dover
(39.1580°N, 75.5250°W)
Time: 01:17:31
(UTC-04:00)
Language:

SeaSat 1 - Orbit

View from above orbital plane
View from above orbital plane
View from above satellite
View from above satellite

Ground track
Ground track

The orbit data is extracted from the following two-line orbital elements,

1 10967U 78064A   18109.80654630 -.00000059  00000-0  23062-4 0  9991
2 10967 108.0101 220.3096 0001438 281.9332  78.1651 14.43706127 90857
Epoch (UTC): 19 April 2018 19:21:25
Eccentricity: 0.0001438
inclination: 108.0101°
perigee height: 745 km
apogee height: 747 km
right ascension of ascending node: 220.3096°
argument of perigee: 281.9332°
revolutions per day: 14.43706127
mean anomaly at epoch: 78.1651°
orbit number at epoch: 9085

The dashed part of the orbit path shows where the satellite is in the earth's shadow,  

DLR